Theta_e
313 313 314 314 314 315 315 315 316 316 316 316 315 314 312 312 312 312 313 313 313 312 311 311 312 314 313 313 312 312 312 312 313 313 313 313 312 312 312 310 309 309 309 308 307 306 305 305 303 301 301 303
310 310 312 312 312 313 312 312 313 313 314 314 313 311 310 309 310 311 310 310 310 310 310 308 309 310 313 312 312 311 311 311 311 312 312 312 311 310 310 309 308 307 307 307 306 306 305 304 303 302 301 302
311 309 309 310 310 311 311 310 309 310 311 311 311 309 307 307 307 308 308 307 307 308 308 307 306 307 310 311 310 310 310 310 311 310 310 310 310 309 309 308 307 306 306 306 306 305 305 303 302 302 301 303
309 309 308 308 308 309 309 308 307 307 308 308 307 307 306 305 305 304 306 306 306 305 305 306 306 306 307 310 309 309 309 308 309 309 308 309 309 308 306 306 305 303 303 304 305 305 304 303 302 302 303 303
307 308 307 308 307 307 307 307 306 305 305 305 306 305 305 304 303 305 304 304 304 304 304 305 305 304 305 307 308 307 307 307 307 308 307 307 308 307 305 303 303 301 300 301 302 303 303 302 302 302 302 302
309 308 306 307 310 309 308 307 307 307 305 304 304 305 304 303 304 303 304 304 304 303 304 303 303 303 303 305 306 306 305 305 306 306 306 306 306 306 304 302 301 300 300 299 298 300 301 300 301 302 302 301
308 306 306 308 309 308 306 305 307 307 305 303 304 304 304 302 303 303 303 303 305 305 303 304 302 302 303 303 303 303 304 303 303 304 304 304 303 303 303 301 301 301 301 301 300 298 299 299 301 301 302 301
308 307 307 306 306 306 305 306 306 307 305 304 304 303 302 301 303 303 302 303 298 299 300 302 300 300 301 300 300 300 301 301 299 300 301 301 300 300 301 301 301 300 300 300 300 301 299 299 300 301 300 300
308 308 307 306 305 305 304 304 305 304 305 304 304 304 302 302 302 303 301 302 302 301 302 302 302 303 302 302 303 300 301 302 303 300 301 302 301 300 301 301 300 301 300 299 300 299 299 299 300 299 299 299
310 308 307 307 306 305 305 305 304 304 304 303 304 303 302 302 302 301 300 301 302 301 301 301 301 301 301 302 302 302 300 301 302 301 301 301 301 300 300 300 300 300 298 298 298 298 299 299 298 298 298 298
309 309 309 308 307 305 304 304 304 303 303 303 303 304 303 301 301 301 300 300 301 301 301 300 300 300 300 301 300 301 300 301 301 300 299 299 300 300 300 299 300 299 299 298 297 297 298 298 298 298 298 298
308 309 309 308 306 304 304 303 303 303 303 304 303 303 301 301 301 300 300 301 300 301 301 300 300 300 299 300 299 300 300 299 299 299 299 299 300 299 299 299 299 298 298 298 298 298 298 298 298 297 297 297
309 309 309 308 307 305 305 304 304 304 304 303 302 302 302 302 300 300 300 300 301 300 300 300 300 299 298 299 299 300 299 299 298 298 298 298 298 299 298 298 298 298 298 298 298 297 297 297 297 297 297 297
309 308 308 308 307 306 305 305 305 305 304 303 302 302 302 302 301 300 300 300 301 300 300 300 300 300 299 298 298 298 298 298 298 297 297 298 298 297 297 297 297 297 297 297 297 297 296 296 296 296 296 297
309 309 308 308 308 308 306 306 305 305 304 303 303 302 303 303 302 300 300 300 300 300 299 300 300 299 299 298 298 298 298 298 298 297 297 297 297 297 296 296 297 296 296 296 296 297 296 296 296 296 296 296
309 309 309 309 308 307 307 307 305 305 304 303 303 304 303 303 302 301 300 300 300 300 299 299 299 299 299 298 298 298 298 297 298 297 297 298 298 297 296 295 295 296 295 295 295 296 296 296 295 295 295 295
310 310 309 309 308 308 308 306 306 305 304 304 304 304 304 303 302 301 301 300 301 300 299 299 299 299 299 299 299 299 299 299 298 297 296 296 297 296 296 295 295 296 296 295 295 295 295 295 295 295 295 295
310 310 310 309 309 308 307 307 306 305 305 305 304 304 304 304 303 301 301 301 301 301 300 299 299 299 299 299 300 299 299 297 297 296 296 295 295 295 294 294 295 295 295 295 295 295 296 295 295 295 295 295
309 310 310 309 309 308 308 307 306 306 306 305 305 304 304 304 303 302 302 302 301 300 300 299 299 299 299 300 300 298 298 297 296 296 295 295 294 295 294 295 295 295 294 294 294 295 295 295 295 295 294 295
309 309 309 309 306 308 308 306 306 306 305 305 305 304 304 304 303 302 302 302 301 300 300 299 299 299 300 300 299 298 298 297 296 296 295 296 295 293 293 294 294 295 294 294 294 294 294 294 294 294 294 294
308 308 307 307 307 307 307 306 305 306 306 305 305 304 304 304 303 303 302 302 301 300 299 299 299 300 300 300 299 298 297 297 297 296 296 295 295 295 293 293 293 294 294 294 294 294 294 294 294 294 294 294
307 307 306 306 306 305 305 305 305 305 305 304 304 304 303 304 303 302 302 301 301 300 299 299 299 299 300 299 298 297 297 296 297 296 295 294 295 295 294 293 293 293 294 294 294 293 293 293 293 293 294 294
306 305 305 305 305 304 305 305 305 304 304 304 304 304 304 303 302 302 301 301 300 299 299 299 299 299 299 299 297 297 296 296 296 296 295 294 294 295 295 294 294 293 293 293 292 292 292 293 293 293 294 294
305 305 304 304 305 305 306 306 304 305 304 304 303 303 303 302 301 301 300 300 300 299 298 298 298 298 299 298 297 296 295 295 296 296 295 295 295 294 294 294 293 293 292 292 291 291 291 292 293 293 293 294
303 302 303 304 304 303 304 304 304 304 304 304 303 302 301 301 300 300 300 300 299 299 298 298 298 298 297 298 297 296 295 296 295 295 295 294 294 292 291 292 294 294 293 290 289 291 292 293 294 294 293 293
302 303 302 301 301 301 302 302 302 301 302 302 302 301 301 300 299 299 299 298 299 298 298 297 297 297 296 296 296 296 295 295 293 294 293 293 292 293 291 291 293 293 291 289 289 287 288 289 291 293 293 293
301 301 302 301 301 300 300 302 302 301 301 301 301 301 300 299 298 298 297 298 297 296 296 295 295 295 295 295 295 294 294 294 294 294 293 293 291 290 292 291 293 292 291 286 288 288 286 286 287 291 292 294
301 300 301 301 301 301 300 299 300 301 302 302 300 299 298 298 297 296 296 296 296 295 295 294 294 294 293 293 293 293 292 292 292 292 292 292 292 291 287 289 289 292 291 288 287 283 285 285 285 283 287 289
300 300 301 301 301 302 301 302 301 300 298 298 296 296 296 296 295 293 292 292 292 291 290 291 291 290 290 290 290 290 290 290 290 290 290 290 289 289 287 285 287 288 290 289 289 285 283 283 283 284 287 286
298 299 298 298 297 296 297 296 296 294 293 293 293 293 294 294 292 289 288 287 286 286 286 286 286 286 285 286 286 287 287 288 288 287 287 287 287 286 286 285 284 284 287 287 287 286 286 285 282 281 282 282
294 296 296 296 295 295 294 293 294 293 293 293 292 291 289 290 290 288 285 284 283 283 284 284 284 283 283 283 284 284 285 284 284 284 284 284 284 283 284 284 281 282 283 284 285 285 284 283 283 282 279 276
Wind_Speed
4 4 5 5 6 7 7 7 7 7 7 6 6 5 3 2 2 2 2 2 2 2 1 2 2 2 2 2 1 2 2 1 2 4 4 5 6 6 5 5 5 5 5 5 5 5 6 6 5 5 6 5
2 4 5 6 6 6 6 6 6 6 6 6 5 4 2 2 2 2 2 2 2 2 2 2 3 3 3 2 2 2 3 3 3 4 4 5 6 6 7 7 7 7 7 6 6 6 6 6 6 7 7 6
5 4 5 6 6 6 6 5 5 6 6 5 5 3 3 3 3 2 2 2 2 2 3 3 5 4 5 4 4 3 4 4 4 4 5 5 6 7 7 8 8 8 8 8 8 7 7 7 7 8 8 6
5 6 5 6 6 6 6 5 4 5 5 4 4 3 4 4 4 5 5 2 4 3 3 4 5 4 6 6 5 5 5 5 5 5 5 5 6 6 7 8 8 9 9 9 9 9 8 7 8 7 6 5
5 4 4 6 7 7 6 6 5 4 4 5 5 6 6 4 6 5 5 5 5 3 6 3 5 6 7 7 7 6 6 6 6 6 6 6 6 6 6 7 9 11 10 9 9 9 8 8 7 6 5 5
3 4 5 7 6 6 6 7 7 6 6 5 6 5 5 6 5 5 5 5 4 5 5 6 7 7 8 8 8 7 7 7 7 7 6 6 6 6 6 7 6 6 7 9 9 8 9 7 7 6 6 6
4 5 5 6 6 5 6 7 7 7 6 6 5 5 5 6 6 5 5 5 2 3 4 6 5 7 8 8 8 8 7 7 7 7 8 7 7 7 7 6 5 6 5 5 8 9 7 7 6 6 6 7
5 5 5 6 5 5 6 6 6 6 6 6 5 5 5 6 5 5 6 2 5 6 6 7 10 10 9 9 10 9 7 8 9 8 9 10 8 7 6 5 5 5 5 6 6 5 6 6 6 6 7 6
6 5 5 5 6 6 6 5 5 5 6 6 6 6 6 6 5 5 6 6 5 5 5 5 5 6 6 6 6 7 7 6 5 6 6 5 6 6 6 5 6 5 6 6 6 6 7 7 7 7 7 7
5 5 6 6 6 6 6 6 6 6 6 6 6 6 6 6 6 6 6 6 6 6 6 6 6 6 6 6 6 5 6 6 6 5 6 6 6 6 6 6 5 6 6 7 7 7 7 7 7 7 8 8
6 6 6 6 6 6 6 6 6 6 6 6 6 6 6 7 7 7 7 7 7 7 6 6 6 6 6 6 6 6 6 7 6 6 7 7 7 6 6 6 6 6 7 7 7 8 8 7 8 8 8 8
7 7 6 6 6 7 8 7 6 6 6 6 6 7 7 7 7 7 7 7 7 7 6 7 7 6 6 6 7 7 7 7 7 7 7 7 7 7 7 7 7 7 7 7 7 8 8 8 7 8 8 8
7 7 6 6 6 7 7 7 7 7 6 6 7 7 7 7 7 7 7 8 7 6 7 7 7 7 7 7 7 6 7 7 7 8 7 7 7 7 7 7 7 7 7 7 7 7 8 8 8 8 8 8
7 7 7 7 7 7 6 7 7 7 7 7 7 7 7 8 8 8 8 8 7 7 8 7 7 7 8 8 7 7 8 7 7 8 7 7 7 8 8 8 8 7 8 8 8 8 8 8 8 8 8 8
8 7 8 7 6 6 7 7 7 7 7 7 7 8 8 7 8 8 8 8 8 7 8 8 7 8 7 7 7 7 8 7 7 7 8 8 7 7 7 8 7 7 8 8 8 8 9 9 8 8 8 9
8 8 8 7 7 7 7 7 7 7 7 7 7 8 8 8 8 8 9 9 9 9 8 8 8 8 8 8 7 7 7 7 7 7 8 8 8 8 8 9 8 8 8 9 9 8 9 8 9 9 8 9
8 7 7 7 7 7 6 6 7 7 7 7 7 7 8 8 9 8 9 9 9 9 9 9 9 9 9 8 7 7 7 8 8 8 8 9 8 8 8 9 9 8 8 9 9 9 10 8 9 9 8 9
7 7 7 6 6 6 6 6 6 7 7 7 7 8 9 8 9 9 9 9 9 8 8 9 9 10 9 8 7 7 7 7 7 8 9 9 8 9 9 10 10 9 9 9 8 9 9 8 9 8 9 9
8 7 6 6 6 6 6 6 6 6 6 7 7 8 8 8 8 9 10 10 9 9 9 9 10 10 9 8 7 7 7 7 8 8 9 9 9 9 9 10 9 10 10 10 10 10 9 9 9 8 9 9
7 7 7 6 7 6 6 6 7 7 7 7 7 8 8 9 8 9 9 9 8 9 9 9 10 10 9 8 7 7 8 7 9 9 9 9 9 10 11 10 11 9 10 10 10 9 9 10 9 9 9 10
7 7 7 7 7 6 6 6 7 7 7 7 7 7 8 8 7 7 8 8 8 9 10 10 11 11 10 9 8 8 8 9 9 9 9 9 9 9 10 11 12 11 11 11 10 10 10 11 10 10 10 10
6 5 6 6 6 6 6 7 7 7 7 7 7 7 7 7 7 7 8 8 8 8 10 10 11 12 12 9 8 9 9 10 10 10 9 10 10 9 9 9 10 12 11 10 9 10 11 12 11 11 11 10
6 6 6 6 7 7 7 7 7 6 7 7 7 7 7 8 7 8 8 8 8 9 10 10 10 11 11 9 9 9 10 10 10 10 10 10 11 9 9 10 10 11 11 11 10 11 13 12 13 11 12 10
5 4 5 6 6 6 6 5 5 5 6 5 6 6 7 7 7 7 8 8 8 9 9 9 10 11 11 9 9 9 10 11 10 11 11 11 10 11 11 10 9 10 10 11 12 14 14 13 14 15 14 12
6 6 7 6 6 7 8 7 7 7 6 5 5 6 6 7 7 8 8 8 8 8 9 9 9 10 10 9 9 9 10 11 12 11 11 11 10 11 12 11 10 10 7 10 12 12 14 13 11 13 14 15
6 5 6 7 7 8 9 8 8 9 8 8 7 7 7 7 8 8 9 9 9 9 9 9 9 9 10 10 9 9 10 11 11 12 11 9 10 9 10 11 9 9 6 10 11 14 14 12 12 16 16 16
7 7 7 7 8 9 9 8 7 7 9 8 7 7 7 8 8 10 9 10 9 8 8 9 9 9 9 10 9 10 11 10 11 10 11 11 11 12 10 11 9 9 7 10 10 12 13 13 13 8 6 10
8 7 7 6 6 7 7 8 9 8 7 7 9 11 10 11 11 11 10 11 10 9 9 10 10 10 9 10 10 10 10 12 12 10 11 11 13 13 15 13 11 8 8 7 7 10 6 11 10 17 9 3
9 7 7 6 6 5 6 4 5 8 9 10 9 9 11 11 11 12 11 12 12 11 11 10 10 10 10 10 10 9 9 10 10 11 10 12 12 12 11 13 11 11 12 13 10 9 11 11 9 10 10 12
9 8 8 8 8 9 8 8 8 10 11 11 11 11 10 10 11 12 12 12 12 12 11 10 10 10 9 8 8 8 8 9 9 10 11 10 10 11 11 11 12 11 9 9 11 11 10 10 12 15 15 13
11 10 9 10 9 8 8 8 7 8 8 8 9 9 11 10 10 11 11 11 12 12 11 10 10 10 8 8 7 7 6 6 8 8 8 8 8 9 9 9 10 11 10 9 9 7 9 11 8 9 9 11
Wind_Direction
199 210 212 219 224 229 230 233 234 234 233 232 231 228 236 252 242 222 222 209 210 215 240 257 292 289 261 250 209 204 240 251 278 285 288 293 288 285 277 273 267 267 266 263 265 259 264 259 257 263 269 278
202 220 221 221 229 232 237 244 248 247 246 243 241 239 231 251 268 262 244 256 240 242 244 271 274 287 280 256 247 228 231 239 253 265 278 282 286 286 282 279 277 275 273 273 269 268 267 271 268 269 267 279
189 223 232 233 235 241 244 250 259 259 260 261 261 268 242 246 240 287 292 278 280 267 264 260 266 268 277 260 246 244 234 242 241 247 259 270 276 279 281 282 283 281 279 275 274 272 271 271 273 271 267 257
228 199 231 239 240 246 250 251 258 269 274 278 281 272 260 239 244 229 233 239 248 239 278 265 276 285 274 263 251 249 246 248 250 249 254 263 272 278 283 288 286 284 280 278 275 275 276 272 273 260 245 263
227 226 213 231 232 242 248 252 248 258 259 250 237 240 230 236 240 241 239 219 234 211 237 261 258 262 267 267 260 255 258 256 258 257 257 260 266 275 285 289 289 274 269 270 273 278 275 280 263 256 263 268
228 232 219 246 238 227 227 225 234 230 241 238 252 213 240 244 244 242 237 237 228 243 232 227 228 253 259 262 265 263 265 264 262 263 262 264 266 275 280 290 281 262 239 246 260 265 275 267 260 260 258 258
233 232 240 234 235 238 236 248 236 246 237 247 242 253 253 253 251 247 253 250 277 269 272 265 252 247 254 261 264 267 266 267 266 266 266 267 272 275 276 269 256 264 272 264 224 241 244 252 262 270 264 262
229 232 233 238 237 237 241 235 234 237 245 246 245 245 254 256 256 253 258 205 211 241 244 233 224 237 250 254 256 256 266 249 249 259 262 260 266 263 243 250 258 266 268 269 277 271 266 263 265 261 264 261
235 231 234 239 238 239 244 244 241 244 240 240 242 241 251 256 260 255 258 254 248 239 244 249 252 230 230 234 239 201 253 256 241 231 249 243 228 249 249 246 256 261 267 268 268 268 270 268 268 266 264 265
235 226 240 239 238 240 242 243 244 249 244 242 232 235 241 250 249 250 250 250 247 248 249 250 252 249 247 247 250 228 249 252 250 253 250 246 250 252 252 249 255 258 261 270 269 271 272 270 272 269 269 269
236 236 238 242 242 240 243 241 243 243 244 243 240 232 237 246 252 250 252 249 245 248 250 252 251 253 250 248 252 251 251 252 252 252 254 252 252 252 252 252 249 249 250 253 260 265 264 263 265 270 270 267
238 241 243 242 243 237 248 251 247 249 247 247 240 237 243 242 253 257 257 254 253 251 252 251 255 258 257 252 253 253 251 252 254 253 251 251 252 251 249 249 246 249 250 246 246 255 258 259 261 264 268 269
236 243 241 241 241 246 243 243 248 252 250 246 250 245 234 238 250 254 256 260 258 260 255 255 253 252 254 253 253 251 252 249 253 254 253 253 253 253 255 255 252 248 250 252 250 251 260 260 260 262 262 264
238 236 239 237 242 248 243 244 251 251 249 252 252 248 236 233 243 254 260 263 261 258 259 257 255 252 253 253 253 250 254 253 254 258 260 257 256 257 257 257 256 254 258 256 254 250 255 258 260 260 258 260
241 238 240 241 242 241 243 249 248 247 251 252 251 251 249 239 240 251 258 260 263 262 261 260 258 257 257 254 251 250 255 257 256 261 262 262 262 263 266 264 263 255 259 261 257 251 247 252 257 258 258 258
242 241 241 242 242 245 244 245 248 252 251 252 253 253 247 245 249 248 255 258 259 259 263 264 262 262 258 257 257 252 255 258 259 262 265 262 258 262 263 264 260 252 255 259 259 256 251 250 251 254 256 257
245 244 241 240 242 247 240 244 250 253 255 257 259 257 250 248 249 249 254 257 255 256 261 264 265 263 259 259 258 260 259 260 264 262 258 255 248 251 252 255 258 252 249 255 258 257 256 254 252 252 254 256
250 245 245 247 249 248 245 250 253 255 259 260 262 261 258 248 247 249 254 256 261 260 264 265 264 264 264 262 259 259 261 260 259 260 259 259 257 255 254 258 260 261 259 258 260 259 259 254 256 255 253 253
254 259 258 257 254 254 249 258 258 264 262 260 260 262 261 252 248 251 252 257 263 268 268 269 270 267 267 267 261 265 265 263 266 263 262 263 262 263 262 262 263 262 263 265 263 263 265 262 263 257 255 256
265 264 264 265 267 266 259 261 263 263 261 262 263 262 264 260 255 255 260 263 263 269 271 272 274 273 276 272 266 268 269 262 262 263 263 261 259 267 266 268 268 265 268 266 266 265 268 268 266 263 262 259
270 274 275 273 274 269 267 266 267 265 265 265 264 264 267 270 267 270 270 268 266 268 272 272 274 276 277 274 270 272 271 267 263 263 261 263 261 257 269 272 274 273 271 270 267 268 268 269 268 263 262 260
286 282 277 274 271 271 269 269 267 268 268 270 271 274 276 285 285 286 283 277 274 273 274 275 275 278 279 277 272 271 268 267 268 264 261 269 268 265 265 268 271 275 276 276 273 271 270 270 267 264 263 260
282 273 267 264 263 265 264 261 257 259 265 269 277 281 289 292 292 292 289 284 278 272 274 275 276 276 278 274 272 272 273 272 271 265 259 261 271 269 265 270 274 277 283 282 275 271 268 266 262 263 262 259
304 298 295 296 291 282 275 267 267 264 265 275 283 293 301 307 302 297 291 288 284 278 275 278 279 280 282 279 274 273 273 275 278 281 280 274 272 276 274 267 267 269 274 276 276 273 270 262 258 257 256 256
338 333 327 317 316 314 312 312 309 300 305 308 316 325 319 314 307 309 305 298 294 287 284 281 282 283 282 282 278 274 273 278 283 284 284 285 281 279 280 277 273 273 273 286 286 275 267 269 256 254 252 253
334 338 332 325 323 319 313 319 320 321 326 324 315 317 324 329 334 326 317 312 305 300 298 298 298 296 296 296 292 288 286 283 279 278 277 276 281 269 271 277 276 275 288 282 287 303 302 288 275 258 249 248
350 341 338 330 324 322 315 313 321 321 318 314 319 335 349 349 349 340 333 331 326 318 316 312 310 309 310 308 307 304 301 298 296 298 296 294 295 297 288 282 281 268 247 280 290 288 291 289 304 284 263 244
349 342 324 318 312 310 305 312 313 309 321 352 359 356 357 352 357 355 350 350 347 340 336 332 327 324 322 321 320 315 311 310 308 310 310 309 305 303 298 295 293 286 267 267 293 294 282 301 303 297 286 336
352 353 360 353 336 319 320 319 347 358 356 358 356 356 359 6 12 9 9 8 6 2 353 350 347 342 335 330 328 323 320 320 320 319 316 315 309 306 301 299 296 291 288 279 271 272 294 292 277 269 305 341
360 9 9 2 3 2 357 356 5 5 357 352 358 0 2 5 22 21 20 19 13 11 3 2 1 356 347 344 338 338 329 325 327 329 328 327 321 310 306 299 298 294 292 285 279 268 269 275 285 296 303 313
8 17 17 17 15 13 8 358 1 1 4 3 2 2 6 4 19 25 22 19 15 9 4 3 4 0 354 352 345 336 335 339 336 330 328 324 317 312 307 302 293 294 299 300 283 257 251 273 279 303 311 290